Location: Lake Almanor
(40.2485°N, 121.1442°W)
Time: 07:32:55
(UTC-08:00)

STARLINK-1076 - Pass Details

Date: 02 February 2020
Orbit: 348 x 351 km, 53.0° (Epoch: 28 February)

Event Time Altitude Azimuth Distance (km) Brightness Sun altitude
Rises 19:04:29 0° 294° (WNW) 2,160 7.7 -19.4°
Reaches altitude 10° 19:06:58 10° 272° (W) 1,313 6.8 -19.9°
Maximum altitude 19:08:54 16° 230° (SW) 1,009 5.7 -20.2°
Drops below altitude 10° 19:10:49 10° 189° (S) 1,305 5.7 -20.6°
Enters shadow 19:11:12 - 183° (S) 1,415 5.8 -20.7°
